Location: Yecla
(38.6122°N, 1.1101°W)
Time: 11:46:55
(UTC+02:00)

ISS - Pass Details

Date: 27 May 2019
Orbit: 407 x 418 km, 51.6° (Epoch: 24 June)

Event Time Altitude Azimuth Distance (km) Brightness Sun altitude
Rises 00:07:39 0° 317° (NW) 2,358 1.3 -24.5°
Reaches altitude 10° 00:10:44 10° 348° (NNW) 1,496 0.0 -24.8°
Maximum altitude 00:12:17 13° 16° (NNE) 1,347 -0.7 -24.9°
Enters shadow 00:13:33 11° 39° (NE) 1,449 -0.8 -25.1°
